Find Starlink 34032

NORAD ID: 63853 Int'l Des: 2025-093 Owner: SPXS Country: US Constellation: starlink operational
LEOCIRCULAR

現在のビュー

3D地球を読み込み中...

About Starlink 34032

Starlink 34032 (NORAD 63853) is a starlink constellation satellite (v2 mini) launched May 7, 2025 by SPXS of US. It operates in LEO, CIRCULAR orbit with a mass of 575.00 kg.

次回通過

Passes for default location (London). Set your location on the main map for personalized predictions.

高度履歴

Loading altitude history...

軌道要素

1 63853U 25093T 26263.40783073 .00010573 00000-0 39319-3 0 9999
2 63853 43.0026 58.0584 0001156 259.5554 100.5167 15.27579902 77753
Epoch: Sep 20, 2026 • Age: 20 hours

現在のステータス

高度 483.4 km
遠地点 / 近地点 N/A
速度 7.63 km/s
衛星直下点 -4.00°S, 43.6°W
打ち上げ日 May 7, 2025
運用期間 1.3 years
タイプ internet

技術仕様

分類 Payload
質量 575.00 kg
乾燥質量 530.00 kg
長さ 0.30 m
スパン 29.00 m
形状 ? Box + pan
製造者 SPXS
バスタイプ Starlink V2MO
フェーズステータス In Orbit
所有者/国 SPXS/US

Most Searched